"Time","Temp","Dewpoint","Humidity","Pressure","Direction","Speed","Gust","Precip","PrecipRate"
"00:04:55","75","73.1","93.8","29.98","150","0","0","0.00","0.00"
"00:09:56","75","73.3","94.4","29.98","150","0","0","0.00","0.00"
"00:14:58","74.9","73.3","94.5","29.98","150","0","0","0.00","0.12"
"00:19:56","74.8","73.2","94.7","29.98","150","0","0","0.00","0.10"
"00:24:57","74.7","73.2","95","29.98","150","0","0","0.01","0.10"
"00:29:59","74.6","73.1","95","29.98","150","0","0","0.01","0.09"
"00:34:56","74.6","73.1","95","29.98","150","0.3","2.3","0.02","0.10"
"00:39:58","74.6","73.1","95","29.98","150","0.3","2.3","0.02","0.09"
"00:44:56","74.6","73.1","95","29.99","150","0.7","3","0.02","0.08"
"00:49:57","74.4","72.9","95","29.99","170","2.7","7","0.03","0.07"
"00:54:58","74.1","72.6","95","29.99","169","0.9","3.5","0.07","0.07"
"00:59:56","74.2","72.9","95.7","29.99","169","0.7","3.5","0.09","0.09"
"01:04:57","74.3","73.1","96","29.99","168","0.2","1.2","0.10","0.10"
"01:09:58","74.2","72.9","95.7","29.99","110","0.5","2.3","0.11","0.10"
"01:14:57","73.8","72.3","94.8","29.99","78","0.6","2.3","0.11","0.11"
"01:19:58","73.3","71.7","94.8","29.98","95","0.9","4","0.12","0.12"
"01:24:56","72.9","71.4","95","29.98","105","1.1","3.5","0.12","0.12"
"01:29:57","72.5","70.9","94.5","29.98","106","0.8","3.5","0.13","0.12"
"01:34:58","72.3","70.8","95","29.98","106","0","2.3","0.13","0.12"
"01:39:57","72.1","70.6","95","29.98","105","0","0","0.13","0.11"
"01:44:58","71.9","70.4","95","29.98","105","0","0","0.13","0.11"
"01:49:56","71.7","70.2","95","29.98","105","0","0","0.13","0.11"
"01:54:58","71.6","70.1","95","29.98","92","0.2","2.3","0.13","0.10"
"01:59:59","71.5","70","95","29.98","93","0.1","1.2","0.13","0.06"
"02:04:56","71.4","69.9","95","29.97","93","0.4","2.3","0.13","0.04"
"02:09:58","71.4","69.9","95","29.97","93","0.8","2.3","0.13","0.03"
"02:14:57","71.3","69.8","95","29.98","93","0.4","3","0.13","0.02"
"02:19:59","71.3","70.1","96","29.98","93","0.2","3.5","0.14","0.02"
"02:24:56","71.3","70.1","96","29.98","93","0","0","0.14","0.02"
"02:29:57","71.3","70.1","96","29.98","93","0","0","0.14","0.02"
"02:34:59","71.3","70.1","96","29.97","93","0","0","0.14","0.01"
"02:39:58","71.4","70.2","96","29.97","93","0","0","0.14","0.01"
"02:44:59","71.4","70.2","96","29.98","94","0.7","4","0.14","0.01"
"02:49:57","71.4","70.2","96","29.98","95","0.3","2.3","0.14","0.01"
"02:54:59","71.2","69.8","95.3","29.98","95","0.2","1.2","0.15","0.02"
"02:59:56","71.1","69.7","95.5","29.98","95","0.4","2.3","0.16","0.03"
"03:04:58","71","69.6","95.4","29.98","95","0.4","2.3","0.16","0.03"
"03:09:56","70.8","69.4","95.4","29.98","95","0.2","2.3","0.16","0.03"
"03:14:59","70.8","69.5","95.7","29.98","95","0.2","3.5","0.17","0.04"
"03:19:56","70.7","69.5","96","29.97","95","0.2","2.3","0.18","0.04"
"03:24:58","70.6","69.4","96","29.97","95","1","3.5","0.18","0.04"
"03:29:59","70.5","69.3","96","29.97","95","0.5","2.3","0.18","0.04"
"03:34:58","70.4","69.2","96","29.97","95","0.3","2.3","0.18","0.04"
"03:39:56","70.3","69.1","96","29.97","95","0","1.2","0.18","0.04"
"03:44:58","70.2","69","96","29.97","94","0.1","1.2","0.18","0.04"
"03:49:59","70.1","68.9","96","29.97","94","0.2","2","0.18","0.04"
"03:54:57","70.1","68.9","96","29.97","94","0.4","2.3","0.18","0.04"
"03:59:59","70","68.8","96","29.97","94","0.3","2.3","0.18","0.03"
"04:04:56","69.9","68.7","96","29.96","94","0","1.2","0.18","0.02"
"04:09:58","69.8","68.6","96","29.96","94","0.2","2.3","0.18","0.02"
"04:14:57","69.7","68.5","96","29.96","78","0.4","3.5","0.18","0.02"
"04:19:58","69.6","68.4","96","29.96","66","0.2","2","0.18","0.01"
"04:24:56","69.5","68.3","96","29.96","46","0.8","4","0.18","0.00"
"04:29:58","69.5","68.3","96","29.96","40","0.2","2.3","0.18","0.00"
"04:34:56","69.4","68.2","96","29.96","40","0.1","1.2","0.18","0.00"
"04:39:59","69.4","68.2","96","29.96","40","0.1","1.2","0.18","0.00"
"04:44:56","69.3","68.1","96","29.96","39","0.2","3.5","0.18","0.00"
"04:49:58","69.4","68.2","96","29.96","39","0.4","2.3","0.18","0.00"
"04:54:56","69.4","68.2","96","29.96","40","0.5","1.2","0.18","0.00"
"04:59:58","69.4","68.2","96","29.96","15","0.3","3","0.18","0.00"
"05:04:59","69.4","68.2","96","29.96","357","0.3","2.3","0.18","0.00"
"05:09:57","69.4","68.2","96","29.96","28","0.5","2.3","0.18","0.00"
"05:14:56","69.3","68.1","96","29.96","30","0.5","2.3","0.18","0.00"
"05:19:57","69.2","68","96","29.96","30","0","1.2","0.18","0.00"
"05:24:59","69.2","68","96","29.96","32","0.2","2.3","0.18","0.00"
"05:29:57","69.2","68","96","29.97","32","0.1","1.2","0.18","0.00"
"05:34:58","69.1","67.9","96","29.97","32","0.1","1.2","0.18","0.00"
"05:39:57","69.1","67.9","96","29.97","32","0","1.2","0.18","0.00"
"05:44:59","69.1","67.9","96","29.97","32","0","1.2","0.18","0.00"
"05:49:57","69.1","67.9","96","29.96","32","0.3","1.2","0.18","0.00"
"05:54:59","69.2","68","96","29.96","32","0","1.2","0.18","0.00"
"05:59:57","69.2","68","96","29.96","32","0.5","2.3","0.18","0.00"
"06:04:58","69.2","68","96","29.96","30","0.6","3.5","0.18","0.00"
"06:09:57","69.1","67.9","96","29.96","30","0.8","3.5","0.18","0.00"
"06:14:56","69.1","67.9","96","29.97","30","0.1","2.3","0.18","0.00"
"06:19:57","69.1","67.9","96","29.97","30","0.1","1.2","0.18","0.00"
"06:24:56","69.1","67.9","96","29.97","30","0.5","3.5","0.18","0.00"
"06:29:57","69.1","67.9","96","29.97","30","0","2.3","0.18","0.00"
"06:34:58","69.2","68","96","29.97","30","0.2","2.3","0.18","0.00"
"06:39:57","69.2","68","96","29.97","30","0.3","2.3","0.18","0.00"
"06:44:58","69.2","68.3","96.7","29.97","30","0","1.2","0.18","0.00"
"06:49:59","69.3","68.4","97","29.97","30","0.1","1.2","0.18","0.00"
"06:54:57","69.5","68.6","97","29.97","30","0.4","2.3","0.18","0.00"
"06:59:58","69.5","68.6","97","29.97","30","0","1.2","0.18","0.00"
"07:04:59","69.6","68.5","96.5","29.97","30","0.3","2.3","0.18","0.00"
"07:09:57","69.7","68.8","96.9","29.97","30","0.4","2.3","0.18","0.00"
"07:14:59","69.8","68.6","96","29.98","30","0.8","3.5","0.18","0.00"
"07:19:56","69.9","68.7","96","29.98","30","0.5","2.3","0.18","0.00"
"07:24:58","69.9","68.7","96","29.98","30","0.1","2.3","0.18","0.00"
"07:29:59","69.9","68.7","96","29.99","30","0.1","1.2","0.18","0.00"
"07:34:56","69.9","68.7","96","29.99","30","0.2","1.2","0.18","0.00"
"07:39:59","69.9","68.7","96","29.99","30","0.2","1.2","0.18","0.00"
"07:44:56","70","68.8","96","30.00","30","0","1","0.18","0.00"
"07:49:57","70.1","68.9","96","30.00","30","0.4","2.3","0.18","0.00"
"07:54:59","70.2","68.9","96","30.00","30","0.3","2","0.18","0.00"
"07:59:57","70.2","69","96","30.00","30","0.7","2.3","0.18","0.00"
"08:04:58","70.3","69.1","96","30.00","30","0.6","3.5","0.18","0.00"
"08:09:56","70.3","69.1","96","30.00","30","0.5","2.3","0.18","0.00"
"08:14:58","70.4","69.4","96.6","30.00","30","0","1.2","0.18","0.00"
"08:19:59","70.6","69.4","96.1","30.00","26","0.2","1.2","0.18","0.00"
"08:24:56","70.6","69.4","96","30.00","23","0","1.2","0.18","0.00"
"08:29:58","70.7","69.5","96","30.00","23","0","0","0.18","0.00"
"08:34:59","70.8","69.6","96","30.00","22","0.4","3.5","0.18","0.00"
"08:39:57","70.9","69.7","96","30.00","22","0.4","2.3","0.18","0.00"
"08:44:58","70.9","69.7","96","30.01","22","1","3.5","0.18","0.00"
"08:49:56","70.9","69.7","96","30.01","22","1.4","3.5","0.18","0.00"
"08:54:57","70.9","69.7","96","30.01","19","1.6","3.5","0.18","0.00"
"08:59:58","70.9","69.7","96","30.01","19","1.8","3.5","0.18","0.00"
"09:01:10","70.9","69.7","96","30.01","19","0.9","3.5","0.18","0.00"
"09:39:56","70.8","69.6","96","30.01","345","0.5","1.2","0.18","0.00"
"09:44:57","70.8","69.6","96","30.01","345","0.8","3.5","0.20","0.02"
"09:49:59","70.7","69.5","96","30.01","345","1.4","4","0.22","0.04"
"09:54:58","70.7","69.5","96","30.01","345","0.6","3.5","0.23","0.05"
"09:59:57","70.7","69.5","96","30.01","345","0.8","3.5","0.24","0.06"
"10:04:59","70.7","69.6","96.4","30.01","346","0.3","1.2","0.25","0.07"
"10:09:56","70.7","69.8","97","30.01","352","0.6","4","0.27","0.08"
"10:14:57","70.7","69.8","97","30.02","352","0.8","3.5","0.29","0.10"
"10:19:56","70.7","69.8","97","30.02","35","0.8","4","0.32","0.13"
"10:24:58","70.6","69.7","97","30.02","44","1","7","0.34","0.15"
"10:29:58","70.6","69.7","97","30.03","42","0.8","5.8","0.35","0.17"
"10:34:56","70.4","69.4","96.6","30.03","29","1.2","3.5","0.36","0.18"
"10:39:56","70.3","69.1","96","30.03","47","1.2","3.5","0.36","0.18"
"10:44:59","70.1","68.9","96","30.03","72","1","3.5","0.36","0.18"
"10:49:58","70.1","68.9","96","30.03","72","0.8","2.3","0.37","0.17"
"10:54:56","70.1","69","96.3","30.03","80","0.7","3","0.37","0.15"
"10:59:59","70.2","69.3","97","30.03","30","0.5","3.5","0.38","0.14"
"11:04:56","70.4","69.5","97","30.03","51","0.8","3.5","0.40","0.15"
"11:09:58","70.4","69.5","97","30.03","69","0.4","2.3","0.40","0.15"
"11:14:58","70.4","69.5","97","30.04","65","0.6","2.3","0.40","0.13"
"11:19:57","70.4","69.5","97","30.04","309","0.4","2.3","0.41","0.11"
"11:24:59","70.3","69.4","96.8","30.04","293","0.4","2.3","0.42","0.09"
"11:29:58","70.2","69","96","30.04","309","0.9","3.5","0.42","0.08"
"11:34:57","70.1","69","96.5","30.04","321","0.5","4","0.43","0.07"
"11:39:57","70.1","69.2","97","30.04","328","1.4","5","0.44","0.08"
"11:44:59","70.1","69.2","97","30.04","352","0.4","2.3","0.44","0.08"
"11:49:59","70.1","69.2","97","30.04","355","0.7","2.3","0.44","0.08"
"11:54:58","70.2","69.3","97","30.04","30","0.6","2.3","0.44","0.07"
"11:59:56","70.3","69.4","97","30.04","45","0.5","2.3","0.45","0.07"
"12:04:59","70.3","69.4","97","30.04","331","1.3","4","0.45","0.07"
"12:09:56","70.3","69.4","97","30.04","325","1.4","7","0.45","0.05"
"12:14:56","70.1","69","96.2","30.05","1","1.7","8.1","0.45","0.05"
"12:19:59","69.8","68.6","96","30.05","330","1.5","7","0.45","0.05"
"12:24:58","69.7","68.5","96","30.05","317","0.8","3.5","0.45","0.04"
"12:29:57","69.7","68.7","96.5","30.05","309","1.2","5","0.46","0.04"
"12:34:56","69.8","68.9","97","30.05","283","0.9","3.5","0.46","0.04"
"12:39:59","69.8","68.9","97","30.05","39","1.1","3.5","0.46","0.03"
"12:44:58","69.8","68.7","96.4","30.05","245","0.9","3.5","0.46","0.02"
"12:49:57","69.7","68.6","96.4","30.05","317","0.7","5","0.47","0.03"
"12:54:59","69.7","68.8","97","30.05","355","0.7","3.5","0.48","0.04"
"12:59:58","69.7","68.8","97","30.05","352","0.7","4","0.50","0.04"
"13:04:59","69.8","68.9","97","30.05","346","0.6","2.3","0.50","0.05"
"13:09:57","69.8","68.9","97","30.05","346","0.3","2.3","0.51","0.06"
"13:14:58","69.9","69","97","30.05","346","0","2","0.52","0.07"
"13:19:57","70.1","69.2","97","30.05","346","0.5","3.5","0.52","0.07"
"13:24:56","70.1","69.2","97","30.05","345","0.6","3","0.53","0.08"
"13:29:59","70.1","69.2","97","30.05","5","0.7","3.5","0.54","0.09"
"13:34:57","70.1","69.2","97","30.05","11","0.3","2.3","0.54","0.08"
"13:39:59","70.2","69.3","97","30.05","11","0.4","2.3","0.54","0.08"
"13:44:58","70.3","69.4","97","30.05","10","0.5","2.3","0.55","0.09"
"13:49:57","70.4","69.7","97.4","30.05","15","0.5","2.3","0.55","0.09"
"13:54:56","70.4","69.5","97","30.05","13","0.7","2.3","0.55","0.08"
"13:59:59","70.4","69.5","97","30.05","15","0.5","2.3","0.55","0.07"
"14:04:56","70.3","69.3","96.7","30.05","8","0.5","3","0.55","0.05"
"14:09:58","70.2","69.2","96.7","30.05","353","0.8","3.5","0.55","0.05"
"14:14:58","70.1","68.9","96.1","30.05","347","0.6","3.5","0.55","0.04"
"14:19:57","70.1","69","96.5","30.04","314","0.8","4","0.55","0.03"
"14:24:56","70","68.9","96.5","30.04","306","0.3","3","0.55","0.03"
"14:29:58","69.9","69","97","30.05","308","0.6","4","0.55","0.02"
"14:34:57","69.9","69","96.9","30.05","308","0.5","2.3","0.55","0.01"
"14:39:57","69.7","68.6","96.2","30.05","11","1.2","3.5","0.55","0.01"
"14:44:56","69.6","68.4","96","30.05","4","1.1","4","0.56","0.01"
"14:49:59","69.5","68.4","96.2","30.04","3","0.6","2.3","0.56","0.01"
"14:54:57","69.5","68.6","97","30.04","360","0.4","3.5","0.56","0.01"
"14:59:56","69.5","68.6","97","30.05","6","0.6","5","0.56","0.01"
"15:04:57","69.5","68.4","96.6","30.05","351","1.3","4.6","0.57","0.02"
"15:09:59","69.3","68.3","96.5","30.05","26","0.7","4","0.58","0.02"
"15:14:56","69.3","68.4","96.9","30.05","26","0.1","2.3","0.58","0.03"
"15:19:58","69.3","68.4","97","30.05","26","0.4","2.3","0.58","0.03"
"15:24:57","69.5","68.6","97","30.05","28","0.5","2.3","0.58","0.03"
"15:29:56","69.5","68.6","97","30.05","31","1","4","0.58","0.03"
"15:34:58","69.4","68.3","96.2","30.05","116","0.8","3.5","0.58","0.03"
"15:39:58","69.3","68.2","96.3","30.05","114","0.6","2.3","0.58","0.03"
"15:44:57","69.3","68.4","97","30.05","85","0.8","3.5","0.58","0.03"
"15:49:56","69.3","68.3","96.6","30.05","68","0.6","3.5","0.58","0.02"
"15:54:58","69.4","68.4","96.9","30.05","69","0.5","2.3","0.58","0.02"
"15:59:57","69.4","68.5","97","30.05","69","0.6","2.3","0.58","0.02"
"16:04:58","69.6","68.7","97","30.05","69","0.3","2","0.58","0.02"
"16:09:56","69.7","68.8","96.9","30.05","54","0.8","2.3","0.58","0.01"
"16:14:56","69.7","68.6","96.2","30.05","18","0.6","4","0.58","0.00"
"16:19:59","69.7","68.5","96","30.05","11","0.7","4","0.58","0.00"
"16:24:58","69.7","68.5","96","30.05","9","0.3","2.3","0.58","0.00"
"16:29:56","69.8","68.6","96","30.05","10","0.3","3","0.58","0.00"
"16:34:56","69.8","68.6","96","30.05","10","0.5","2.3","0.58","0.00"
"16:39:56","69.7","68.5","95.9","30.05","20","0.3","2.3","0.58","0.00"
"16:44:59","69.6","68.2","95.1","30.05","26","0.4","2.3","0.58","0.00"
"16:49:58","69.6","68.4","96","30.05","61","0.1","2.3","0.58","0.00"
"16:54:56","69.6","68.4","96","30.05","61","0.6","3","0.58","0.00"
"16:59:59","69.6","68.2","95.4","30.05","73","0.9","4","0.58","0.00"
"17:04:56","69.6","68.2","95.4","30.05","77","0.3","2.3","0.58","0.00"
"17:09:58","69.6","68.2","95.3","30.05","77","0.1","2.3","0.58","0.00"
"17:14:58","69.7","68.5","95.8","30.05","77","0.1","1.2","0.58","0.00"
"17:19:57","69.8","68.3","95.2","30.05","77","0.3","2.3","0.58","0.00"
"17:24:59","69.8","68.3","95","30.05","77","0.2","2.3","0.58","0.00"
"17:29:58","69.8","68.3","95.2","30.05","77","0.1","1.2","0.58","0.00"
"17:34:56","69.9","68.7","96","30.05","77","0","1.2","0.58","0.00"
"17:39:56","69.9","68.7","96","30.05","77","0.1","1.2","0.58","0.00"
"17:44:59","70","68.6","95.3","30.05","77","0.2","1.2","0.58","0.00"
"17:49:59","70.1","68.9","96","30.05","77","0.1","1.2","0.58","0.00"
"17:54:57","70.1","68.9","95.9","30.05","77","0.1","2.3","0.58","0.00"
"17:59:59","70.1","68.6","95","30.05","77","0.2","2.3","0.58","0.00"
"18:04:57","70","68.5","95.2","30.05","77","0","0","0.58","0.00"
"18:09:59","69.9","68.6","95.5","30.05","77","0","0","0.58","0.00"
"18:14:59","70","68.8","96","30.05","74","0","2","0.58","0.00"
"18:19:57","70","68.8","96","30.05","74","0.5","2.3","0.58","0.00"
"18:24:56","70","68.8","96","30.05","74","0.3","2.3","0.58","0.00"
"18:29:58","70","68.8","96","30.05","74","0.4","2.3","0.58","0.00"
"18:34:57","69.9","68.7","96","30.04","74","0.1","2","0.58","0.00"
"18:39:57","70","68.8","96","30.04","74","0.7","2.3","0.58","0.00"
"18:44:56","69.9","68.7","96","30.05","74","0.6","3","0.58","0.00"
"18:49:59","69.9","68.7","96","30.05","74","0.3","2","0.58","0.00"
"18:54:57","69.8","68.6","96","30.05","74","0.7","2.3","0.58","0.00"
"18:59:56","69.8","68.6","96","30.05","74","0","1.2","0.58","0.00"
"19:04:57","69.7","68.5","96","30.05","74","0.2","1.2","0.58","0.00"
"19:09:59","69.7","68.5","96","30.05","74","0.1","1.2","0.58","0.00"
"19:14:56","69.7","68.5","96","30.05","74","0.2","1.2","0.58","0.00"
"19:19:59","69.8","68.6","96","30.04","74","0.7","2.3","0.58","0.00"
"19:24:58","69.7","68.5","96","30.04","73","1","3","0.58","0.00"
"19:29:56","69.7","68.5","96","30.04","10","1.1","3.5","0.58","0.00"
"19:34:59","69.7","68.6","96.5","30.04","10","0.2","2.3","0.58","0.00"
"19:39:59","69.7","68.8","97","30.04","10","0.1","2.3","0.58","0.00"
"19:44:58","69.7","68.7","96.8","30.04","10","0","1","0.58","0.00"
"19:49:57","69.7","68.8","97","30.04","10","0.1","1.2","0.58","0.00"
"19:54:59","69.7","68.8","97","30.04","16","0","0","0.58","0.00"
"19:59:58","69.7","68.8","97","30.04","15","0.2","3.5","0.58","0.00"
"20:04:59","69.7","68.8","97","30.04","15","0.3","1.2","0.58","0.00"
"20:09:57","69.6","68.5","96.2","30.04","15","0.2","2.3","0.58","0.00"
"20:14:58","69.5","68.5","96.6","30.04","15","0.6","3.5","0.58","0.00"
"20:19:57","69.5","68.6","97","30.04","4","0.8","2.3","0.58","0.00"
"20:24:56","69.5","68.6","97","30.04","250","0.2","2.3","0.58","0.00"
"20:29:59","69.5","68.6","97","30.04","250","0.5","2.3","0.58","0.00"
"20:34:58","69.4","68.5","97","30.03","250","0.4","2.3","0.58","0.00"
"20:39:58","69.4","68.5","97","30.03","250","0","0","0.58","0.00"
"20:44:58","69.3","68.4","97","30.03","250","0","0","0.58","0.00"
"20:49:57","69.3","68.4","97","30.03","250","0","0","0.58","0.00"
"20:54:57","69.3","68.4","97","30.03","250","0","0","0.58","0.00"
"20:59:56","69.2","68.3","97","30.04","250","0","0","0.58","0.00"
"21:04:57","69.2","68.3","97","30.04","250","0","0","0.58","0.00"
"21:09:59","69.1","68.2","97","30.04","250","0","0","0.58","0.00"
"21:14:59","69.1","68.2","97","30.04","250","0","0","0.58","0.00"
"21:19:58","69","68.1","97","30.03","250","0","0","0.58","0.00"
"21:24:57","69","68.1","97","30.03","250","0","0","0.58","0.00"
"21:29:56","68.9","68","97","30.03","250","0","0","0.58","0.00"
"21:34:56","68.9","68","97","30.03","250","0","0","0.58","0.00"
"21:39:56","68.8","67.9","97","30.03","250","0","0","0.58","0.00"
"21:44:59","68.8","67.9","97","30.04","250","0","0","0.58","0.00"
"21:49:58","68.8","67.9","97","30.04","250","0","0","0.58","0.00"
"21:54:57","68.8","67.9","97","30.04","250","0","0","0.58","0.00"
"21:59:56","68.8","67.9","97","30.05","250","0","0","0.58","0.00"
"22:04:58","68.8","67.9","97","30.05","250","0","0","0.58","0.00"
"22:09:56","68.8","67.9","97","30.05","250","0","0","0.58","0.00"
"22:14:56","68.8","67.9","97","30.06","250","0","0","0.58","0.00"
"22:19:56","68.8","67.9","97","30.06","250","0","0","0.58","0.00"
"22:24:56","68.8","67.9","97","30.06","250","0","0","0.58","0.00"
"22:29:58","68.9","68","97","30.07","250","0","0","0.58","0.00"
"22:34:57","68.9","68","97","30.07","250","0","0","0.58","0.00"
"22:39:58","68.9","68","97","30.07","250","0","0","0.58","0.00"
"22:44:57","68.9","68","97","30.08","250","0","0","0.58","0.00"
"22:49:56","68.9","68","97","30.08","250","0","0","0.58","0.00"
"22:54:59","68.9","68","97","30.08","250","0","0","0.58","0.00"
"22:59:58","68.9","68","97","30.08","250","0","0","0.58","0.00"
"23:04:55","68.9","68","97","30.07","250","0","0","0.58","0.00"
"23:09:57","68.9","68","97","30.07","250","0","0","0.58","0.00"
"23:14:58","68.9","68","97","30.07","250","0","0","0.58","0.00"
"23:19:57","68.8","67.9","97","30.07","250","0","0","0.58","0.00"
"23:24:56","68.8","67.9","97","30.07","250","0","0","0.58","0.00"
"23:29:59","68.8","67.9","97","30.07","250","0","0","0.58","0.00"
"23:34:58","68.9","68","97","30.07","250","0","0","0.58","0.00"
"23:39:58","68.9","68","97","30.07","250","0","0","0.58","0.00"
"23:44:57","68.9","68","97","30.07","250","0","0","0.58","0.00"
"23:49:56","68.8","67.9","97","30.06","250","0","0","0.58","0.00"
"23:54:56","68.8","67.9","97","30.06","250","0","0","0.58","0.00"
"23:59:59","68.8","68","97.2","30.06","250","0","0","0.58","0.00"
